Regional Weather Roundup
Issued by NWS Lake Charles, LA

Home | Current Version | Previous Version | Text Only | Print | Product List | Glossary On
Versions: 1 2 3 4 5 6 7 8 9 10 11 12 13 14 15 16 17 18 19 20 21 22 23 24 25 26 27 28 29 30 31 32 33 34 35 36 37 38 39 40 41 42 43 44 45 46 47 48 49 50
000
ASUS44 KLCH 141411
RWRLCH
REGIONAL WEATHER ROUNDUP
NATIONAL WEATHER SERVICE LAKE CHARLES LA
800 AM CST THU NOV 14 2019

Note: "fair" indicates few or no clouds below 12,000 feet with no
significant weather and/or obstructions to visibility.


ACROSS SOUTHEAST TEXAS

CITY           SKY/WX    TMP DP  RH WIND       PRES   REMARKS
BEAUMONT       CLOUDY    48  35  60 NE8       30.25R
BEAUMONT CITY  NOT AVBL
ORANGE         CLOUDY    47  34  60 NE5       30.27R
JASPER         CLOUDY    45  41  86 CALM      30.28R
$$

ACROSS CENTRAL LOUISIANA

CITY           SKY/WX    TMP DP  RH WIND       PRES   REMARKS
LEESVILLE      CLOUDY    44  35  71 N3        30.24R
FULLERTON      CLOUDY    44  35  70 CALM      30.23R
ALEXANDRIA INT CLOUDY    43  39  86 NW3       30.26R
ESLER FIELD    CLOUDY    42  39  89 CALM      30.27R
DERIDDER       DRIZZLE   44  35  71 CALM      30.26S
OAKDALE        NOT AVBL
OPELOUSAS      CLOUDY    45  32  61 N6        30.27R
$$

ACROSS SOUTHWEST AND SOUTH CENTRAL LOUISIANA

CITY           SKY/WX    TMP DP  RH WIND       PRES   REMARKS
DEQUINCY       CLOUDY    44  35  70 NE3       30.25S
SULPHUR        CLOUDY    48  32  53 E6        30.26R
LAKE CHARLES   CLOUDY    48  35  60 NE7       30.25R
CHENNAULT INT  NOT AVBL
CAMERON PHI    NOT AVBL
GRAND CHENIER  NOT AVBL
JENNINGS       CLOUDY    46  34  63 NE5       30.25S
LAFAYETTE      CLOUDY    47  34  60 E3        30.25R
NEW IBERIA     LGT RAIN  47  38  71 NE6       30.26R
ABBEVILLE      CLOUDY    45  36  70 NE3       30.25F
PATTERSON      LGT RAIN  46  42  86 N5        30.25R
SALT POINT       N/A     45  42  89 N5        30.24R
$$

SELECTED SITES ACROSS THE REGION

CITY           SKY/WX    TMP DP  RH WIND       PRES   REMARKS
HOUSTON BUSH   LGT RAIN  44  39  82 NE9       30.24R
HOUSTON HOBBY  LGT RAIN  45  41  86 NE13      30.22R FOG
GALVESTON      LGT RAIN  49  46  90 NE15      30.20F FOG
COLLEGE STAT   LGT RAIN  43  40  89 NE7       30.27R FOG
CONROE         LGT RAIN  41  38  89 NE5       30.26R FOG
HUNTSVILLE     LGT RAIN  40  38  93 CALM      30.26R FOG
LUFKIN         LGT RAIN  43  39  86 NE5       30.27R
SHREVEPORT     CLOUDY    42  36  79 CALM      30.29R
MONROE         LGT RAIN  40  37  89 NW5       30.32R FOG
NATCHEZ MS     CLOUDY    42  38  85 CALM      30.27R
BATON ROUGE    CLOUDY    47  35  63 N5        30.25R
N.O. INTL ARPT CLOUDY    52  41  66 N8        30.23R
SLIDELL        CLOUDY    47  41  80 N7        30.23S
$$

MARINE REPORTS

STATION/POSITION TIME  SKY/WX   TEMP    WIND        PRES    VSBY
                                AIR SEA DIR/SP/G
                 (UTC)          (F)     (DEG/KT/KT) (MB)    (MI)
BUOY 30 S HIGH I 1350            63      60/ 16/ 19 1023.7R
WVE H/P(F/S)=  4/ 5

SEA RIM ST PARK  1400            45      70/  7/  9 1024.2R
PORT ARTHUR      1330            46 58   40/  4/  6 1023.5R
SABINE PASS N    1318            46 61   40/  6/  9 1025.5
TEXAS POINT      1330            45 57   40/  9/ 11 1022.5R
CALCASIEU PASS   1330            45 59   70/  9/ 11 1021.4R
LK CHARLES BEACH 1330            46 58              1024.1R
MARSH ISLAND     1300            46                   N/A
FRESH WATER LOCK 1330            44 52   30/  6/  8 1023.8R
AMERADA PASS     1330            45 54  350/  3/  7 1023.4R
$$



USA.gov is the U.S. government's official web portal to all federal, state and local government web resources and services.